Location: Unspecified
(52.4292°N, 19.3359°E)
Time: 16:57:36
(UTC+02:00)

Transit 4A - All Passes

Search period start: 19 May 2024 00:00
Search period end: 29 May 2024 00:00
Orbit: 871 x 971 km, 66.8° (Epoch: 18 May)

Date Brightness Start Highest point End Pass type
(mag) Time Alt. Az. Time Alt. Az. Time Alt. Az.
19 May - 05:38:24 10° SE 05:42:10 18° ESE 05:45:54 10° ENE daylight
19 May - 07:21:44 10° SSW 07:27:38 80° SE 07:33:29 10° NE daylight
19 May - 09:09:17 10° W 09:14:33 33° NNW 09:19:48 10° NNE daylight
19 May - 10:58:26 10° NW 11:02:39 20° N 11:06:52 10° NE daylight
19 May - 12:46:08 10° NNW 12:50:58 26° NNE 12:55:50 10° ENE daylight
19 May - 14:32:30 10° NW 14:38:20 67° NE 14:44:14 10° SE daylight
19 May - 16:19:16 10° NW 16:24:19 31° WSW 16:29:25 10° S daylight
20 May - 05:46:14 10° SSE 05:50:55 25° ESE 05:55:32 10° ENE daylight
20 May - 07:30:47 10° SW 07:36:41 78° NW 07:42:33 10° NE daylight
20 May - 09:18:53 10° W 09:23:53 28° NNW 09:28:53 10° NNE daylight
20 May - 11:07:57 10° NW 11:12:09 20° N 11:16:21 10° NE daylight
20 May - 12:55:14 10° NNW 13:00:20 30° NNE 13:05:28 10° E daylight
20 May - 14:41:33 10° NW 14:47:26 87° NE 14:53:23 10° SE daylight
20 May - 16:28:44 10° WNW 16:33:06 22° WSW 16:37:30 10° SSW daylight
21 May - 05:54:28 10° S 05:59:43 34° ESE 06:04:55 10° NE daylight
21 May - 07:39:59 10° SW 07:45:48 60° NW 07:51:35 10° NE daylight
21 May - 09:28:33 10° WNW 09:33:17 24° NNW 09:38:01 10° NE daylight
21 May - 11:17:22 10° NW 11:21:38 20° N 11:25:54 10° NE daylight
21 May - 13:04:18 10° NNW 13:09:40 36° NNE 13:15:04 10° E daylight
21 May - 14:50:38 10° NW 14:56:27 72° SW 15:02:21 10° SSE daylight
21 May - 16:38:32 10° WNW 16:41:49 15° WSW 16:45:08 10° SW daylight
22 May - 06:02:59 10° S 06:08:35 47° ESE 06:14:09 10° NE daylight
22 May - 07:49:19 10° WSW 07:54:58 47° NW 08:00:37 10° NE daylight
22 May - 09:38:14 10° WNW 09:42:43 22° NNW 09:47:12 10° NE daylight
22 May - 11:26:41 10° NW 11:31:07 22° NNE 11:35:33 10° ENE daylight
22 May - 13:13:20 10° NW 13:18:55 44° NE 13:24:34 10° ESE daylight
22 May - 14:59:44 10° NW 15:05:25 53° WSW 15:11:09 10° SSE daylight
22 May - 16:49:50 10° W 16:50:27 10° W 16:51:06 10° WSW daylight
23 May - 04:29:32 10° SE 04:32:16 14° ESE 04:35:00 10° ENE daylight
23 May - 06:11:42 10° SSW 06:17:31 65° ESE 06:23:18 10° NE daylight
23 May - 07:58:47 10° WSW 08:04:13 38° NW 08:09:39 10° NNE daylight
23 May - 09:47:53 10° WNW 09:52:11 21° N 09:56:30 10° NE daylight
23 May - 11:35:54 10° NW 11:40:34 24° NNE 11:45:14 10° ENE daylight
23 May - 13:22:21 10° NW 13:28:07 56° NE 13:33:56 10° ESE daylight
23 May - 15:08:57 10° NW 15:14:18 38° WSW 15:19:44 10° S daylight
24 May - 04:36:53 10° SSE 04:40:57 20° ESE 04:45:01 10° ENE daylight
24 May - 06:20:38 10° SW 06:26:31 87° SE 06:32:22 10° NE daylight
24 May - 08:08:20 10° W 08:13:32 31° NNW 08:18:42 10° NNE daylight
24 May - 09:57:28 10° NW 10:01:40 20° N 10:05:53 10° NE daylight
24 May - 11:45:02 10° NNW 11:49:58 27° NNE 11:54:55 10° E daylight
24 May - 13:31:23 10° NW 13:37:15 72° NE 13:43:11 10° SE daylight
24 May - 15:18:16 10° NW 15:23:08 28° WSW 15:28:04 10° SSW daylight
25 May - 04:44:51 10° SSE 04:49:43 27° ESE 04:54:33 10° NE daylight
25 May - 06:29:43 10° SW 06:35:35 72° NW 06:41:26 10° NE daylight
25 May - 08:17:58 10° W 08:22:52 27° NNW 08:27:47 10° NNE daylight
25 May - 10:06:57 10° NW 10:11:10 20° N 10:15:23 10° NE daylight
25 May - 11:54:07 10° NNW 11:59:19 31° NNE 12:04:33 10° E daylight
25 May - 13:40:26 10° NW 13:46:19 87° SW 13:52:17 10° SE daylight
25 May - 15:27:47 10° WNW 15:31:53 20° WSW 15:36:02 10° SSW daylight
26 May - 04:53:10 10° S 04:58:32 38° ESE 05:03:52 10° NE daylight
26 May - 06:38:57 10° WSW 06:44:43 56° NW 06:50:28 10° NE daylight
26 May - 08:27:38 10° WNW 08:32:16 24° NNW 08:36:56 10° NE daylight
26 May - 10:16:20 10° NW 10:20:39 21° N 10:24:58 10° ENE daylight
26 May - 12:03:10 10° NNW 12:08:37 38° NE 12:14:06 10° ESE daylight
26 May - 13:49:30 10° NW 13:55:19 65° WSW 14:01:12 10° SSE daylight
26 May - 15:37:45 10° WNW 15:40:35 14° WSW 15:43:26 10° SW daylight
27 May - 05:01:44 10° SSW 05:07:25 52° ESE 05:13:04 10° NE daylight
27 May - 06:48:19 10° WSW 06:53:54 44° NW 06:59:29 10° NE daylight
27 May - 08:37:18 10° WNW 08:41:43 22° NNW 08:46:09 10° NE daylight
27 May - 10:25:37 10° NW 10:30:07 22° NNE 10:34:38 10° ENE daylight
27 May - 12:12:12 10° NW 12:17:51 47° NE 12:23:33 10° ESE daylight
27 May - 13:58:39 10° NW 14:04:15 48° WSW 14:09:56 10° S daylight
28 May - 03:27:48 10° SE 03:31:02 15° ESE 03:34:14 10° ENE visible
28 May - 05:10:32 10° SSW 05:16:22 71° SE 05:22:11 10° NE daylight
28 May - 06:57:49 10° W 07:03:10 36° NNW 07:08:31 10° NNE daylight
28 May - 08:46:56 10° NW 08:51:12 20° N 08:55:28 10° NE daylight
28 May - 10:34:48 10° NW 10:39:33 25° NNE 10:44:18 10° ENE daylight
28 May - 12:21:13 10° NW 12:27:01 60° NE 12:32:54 10° SE daylight
28 May - 14:07:53 10° NW 14:13:07 35° WSW 14:18:26 10° S daylight
